Temp
8 7 7 7 7 6 6 6 7 7 7 8 9 9 9 9 8 8 7 7 7 8 7 7 7 9 10 10 12 11 11 11 12 12 12 12 12 12 12 14 14 13 12 11 12 12 10 13 13 13 12 13 13 13
8 7 7 7 7 7 6 6 7 8 7 7 8 8 9 9 9 9 8 8 7 6 5 5 5 5 5 5 6 10 11 11 10 10 11 12 11 11 12 11 13 10 13 12 13 12 13 13 13 13 13 12 13 11
8 7 7 7 7 7 7 6 7 7 7 7 8 9 9 10 10 9 8 8 8 6 6 6 7 5 5 5 5 7 9 9 10 8 10 10 11 11 10 11 14 12 12 11 12 13 12 12 12 13 13 13 12 11
8 7 7 7 8 7 7 6 7 8 8 7 8 9 9 10 10 9 8 8 7 8 7 6 6 6 5 5 5 5 6 8 8 8 10 10 11 11 10 10 10 11 11 11 11 12 13 12 11 10 11 11 11 10
8 7 7 7 7 7 7 7 6 7 7 7 8 9 9 9 9 9 9 8 7 7 7 6 6 6 5 6 6 6 6 7 8 8 9 9 9 9 9 8 8 10 10 10 10 12 11 13 10 11 9 9 9 8
8 7 7 7 7 8 7 7 6 7 7 7 7 8 8 8 9 8 7 7 8 7 5 6 6 6 6 6 7 7 7 7 6 8 8 8 7 7 7 8 11 11 12 12 13 14 11 11 12 11 9 8 8 8
7 7 7 7 7 7 7 7 6 7 7 7 7 7 7 8 8 9 8 8 8 7 6 5 5 5 5 6 6 6 6 6 6 6 6 7 6 6 7 7 12 12 11 11 10 9 10 11 10 9 9 8 9 8
7 7 7 7 7 6 6 7 6 6 6 6 6 7 7 7 7 7 7 7 7 7 6 4 4 5 5 6 6 5 5 5 5 6 5 6 5 5 5 9 10 12 11 11 9 10 10 8 8 8 8 6 6 6
7 7 7 7 7 6 6 5 6 7 7 6 6 6 7 7 7 6 6 6 7 6 5 4 5 5 4 5 5 5 5 6 4 5 5 6 5 5 7 9 10 9 9 9 9 7 8 7 7 6 6 6 5 5
7 7 6 6 7 6 6 6 6 6 6 5 6 6 6 5 5 5 5 5 4 5 4 4 6 4 5 5 5 6 5 5 4 5 3 4 6 8 9 9 9 9 8 8 7 5 6 6 6 6 6 5 5 6
7 7 6 6 6 6 6 6 6 5 5 5 5 5 5 5 5 5 5 4 5 4 4 4 4 3 4 5 6 5 4 4 3 5 4 5 5 6 8 10 9 9 8 8 7 7 6 6 6 6 5 5 6 6
7 7 6 6 6 5 6 6 6 5 6 7 6 5 5 4 4 4 4 4 4 5 4 3 3 5 3 4 6 4 4 3 3 4 3 4 7 8 7 8 8 7 7 7 7 6 6 6 6 6 5 5 6 6
7 6 6 6 6 5 5 5 6 6 6 6 5 3 3 3 2 3 3 3 4 4 3 2 2 3 3 3 5 4 3 3 4 2 4 5 7 6 5 5 6 6 6 6 6 6 7 6 8 6 4 6 6 5
7 6 5 6 5 4 5 5 5 5 7 4 4 5 4 5 4 5 5 4 3 3 3 4 3 3 4 3 4 3 5 5 2 2 4 5 7 6 4 4 5 5 5 5 4 4 4 4 4 5 5 5 4 3
6 6 4 4 4 4 5 5 4 6 4 3 3 5 5 4 3 2 1 2 2 4 3 3 2 4 3 4 4 3 3 2 4 4 4 3 4 4 3 3 4 4 4 3 4 3 2 3 3 3 4 4 3 3
5 3 2 3 4 4 4 4 3 4 2 2 3 4 4 2 3 1 0 1 2 4 3 2 2 2 3 5 2 2 2 2 4 3 2 0 3 3 3 3 3 4 4 3 2 2 3 3 3 3 3 2 2 2
3 2 2 3 4 4 3 3 3 2 2 3 3 3 3 2 3 3 3 3 4 3 2 2 3 4 2 1 2 3 3 5 4 2 1 2 2 2 2 3 2 3 3 2 2 2 2 3 3 2 -0 1 1 0
1 3 3 3 4 3 3 3 2 2 3 3 3 3 3 4 3 3 3 4 2 2 2 2 2 1 2 2 2 4 4 3 3 2 2 2 2 2 2 1 2 2 2 1 1 0 0 0 -0 -1 0 -0 -1 -1
3 3 3 3 4 2 1 1 1 2 2 3 1 0 1 2 3 4 3 3 2 2 0 -0 3 1 3 2 2 4 3 2 3 3 2 1 2 2 1 1 1 1 0 -0 0 -1 -0 0 0 -0 -1 -1 -2 -2
3 2 2 4 4 2 2 1 0 1 2 1 -0 0 -0 0 2 2 2 2 1 -1 1 3 2 3 3 3 1 2 2 2 2 2 2 1 1 0 -0 -0 -0 -0 -1 -0 -0 -1 -2 -2 -2 -2 -2 -2 -3 -3
0 1 2 3 3 2 1 1 1 1 2 0 -1 1 1 1 1 2 0 2 2 2 1 2 5 6 4 0 4 3 2 2 2 3 3 -0 -0 0 -1 0 -0 -1 -1 -2 -3 -2 -2 -2 -3 -3 -4 -4 -4 -4
2 2 2 3 1 0 1 1 1 -0 -1 1 1 1 2 1 2 2 -1 2 3 3 3 5 5 5 4 2 2 2 4 3 3 2 3 2 -1 -2 -2 -1 -1 -2 -2 -2 -2 -3 -3 -4 -4 -4 -5 -6 -6 -6
2 3 1 1 1 1 1 -0 -0 -0 1 1 0 1 1 1 -0 0 2 1 0 4 5 5 5 5 5 6 5 4 3 2 2 1 2 1 1 1 -0 -2 -1 -1 -3 -3 -2 -3 -4 -5 -5 -6 -6 -7 -7 -7
3 1 1 1 1 0 -1 -1 1 1 2 1 1 1 1 -1 1 1 1 -1 4 2 3 4 4 4 -2 -4 -2 3 2 1 2 2 1 0 -1 -2 -1 -2 -1 -1 -1 -3 -4 -5 -5 -6 -6 -7 -8 -8 -8 -9
1 1 2 2 2 -1 -2 -0 1 1 -1 -1 0 -2 1 -1 -1 1 -0 4 3 4 4 4 4 4 4 4 3 3 3 1 1 1 1 1 -1 -4 -4 -4 -3 -2 -3 -5 -7 -7 -7 -7 -8 -8 -8 -9 -9 -9
1 1 1 2 -1 -1 -2 -1 -0 0 -2 -3 -1 -3 -3 0 1 1 -0 4 5 5 4 4 4 3 2 3 4 3 0 1 2 2 -0 -0 -1 -1 -3 -4 -6 -7 -5 -4 -5 -7 -8 -8 -8 -9 -9 -9 -8 -10
1 1 2 -0 -1 -1 -2 -1 -1 -2 -3 -1 -1 -3 -2 0 -1 -0 -0 2 5 2 2 2 3 2 3 3 4 4 4 1 1 1 -0 -2 -1 -1 -2 -2 -3 -2 -4 -5 -5 -5 -7 -8 -8 -9 -9 -10 -10 -11
1 -0 -1 -2 -3 -3 -3 -3 -3 -3 -2 -2 -1 -4 -1 -0 1 1 0 -4 -4 -3 -3 -2 -1 0 1 3 2 -1 -4 -4 -3 -3 -5 -5 -4 -3 -2 -1 -1 -0 -3 -4 -5 -6 -6 -7 -8 -9 -10 -10 -11 -11
-2 -2 -2 -3 -5 -4 -3 -2 -2 -1 -1 -1 -0 -1 -2 -2 -2 -3 -6 -5 -6 -5 -5 -7 -4 -3 -3 -3 -3 -4 -5 -6 -5 -5 -4 -5 -8 -8 -6 -6 -6 -5 -5 -6 -7 -6 -7 -8 -9 -9 -10 -10 -11 -11
-2 -1 -4 -5 -3 -2 -2 -2 -2 -3 -3 -3 -3 -3 -3 -5 -6 -5 -6 -7 -8 -9 -5 -3 -4 -5 -8 -6 -7 -7 -6 -5 -3 -2 -2 -3 -4 -8 -8 -7 -7 -7 -7 -7 -8 -9 -8 -9 -10 -11 -11 -11 -11 -12
-3 -5 -5 -3 -3 -6 -8 -9 -8 -7 -7 -7 -8 -5 -3 -7 -7 -7 -7 -6 -6 -6 -6 -8 -7 -5 -6 -5 -5 -6 -6 -6 -5 -4 -3 -2 -4 -7 -7 -7 -7 -7 -7 -8 -9 -9 -10 -10 -11 -11 -12 -12 -12 -12
-4 -3 -2 -2 -6 -10 -9 -6 -5 -5 -8 -8 -8 -10 -10 -8 -7 -7 -7 -8 -8 -8 -6 -6 -6 -7 -5 -4 -4 -4 -4 -5 -5 -4 -4 -4 -6 -7 -6 -7 -7 -8 -8 -9 -9 -9 -10 -10 -11 -11 -12 -12 -12 -12
-6 -4 -4 -5 -6 -6 -6 -4 -4 -5 -7 -7 -8 -9 -8 -6 -4 -6 -7 -7 -6 -6 -6 -5 -4 -4 -4 -5 -5 -5 -4 -5 -4 -4 -4 -3 -3 -5 -7 -7 -8 -8 -8 -9 -10 -10 -10 -11 -11 -12 -12 -12 -12 -12
Height
788 787 787 785 784 783 781 779 777 774 772 771 770 772 775 777 778 778 776 774 773 772 777 778 777 773 769 767 765 768 770 768 766 768 768 765 766 765 766 757 757 761 767 770 761 764 777 748 751 754 754 751 752 754
782 782 781 782 781 779 779 778 776 776 774 774 776 778 775 775 777 777 776 775 774 773 778 778 779 779 780 780 778 769 770 768 770 771 770 767 770 767 764 767 758 771 758 761 757 757 748 748 749 749 749 752 754 758
775 777 777 776 777 777 775 775 773 772 773 771 769 770 776 777 776 775 776 776 775 777 780 779 777 778 778 779 780 778 771 772 770 772 770 771 769 767 772 766 751 754 753 762 758 743 747 747 748 748 749 750 752 756
768 771 773 771 772 772 773 772 769 768 770 772 774 773 774 775 773 773 775 776 776 774 777 781 779 778 777 777 778 780 780 776 774 773 770 770 770 765 765 762 762 753 753 753 751 744 744 744 744 747 750 751 753 756
764 765 768 767 767 767 770 772 770 770 773 775 774 773 773 772 773 775 773 775 776 780 778 779 779 780 779 777 777 778 779 778 775 775 775 773 768 770 765 768 760 744 745 749 749 734 738 735 737 741 748 751 754 757
757 759 763 764 762 763 765 769 769 770 773 774 776 774 773 774 775 776 780 781 778 778 781 782 779 778 780 779 778 777 778 778 778 774 771 770 772 774 772 760 727 724 725 726 729 726 732 733 733 737 743 747 751 754
749 753 756 758 760 758 760 764 768 768 772 773 776 777 776 775 775 776 774 773 775 777 780 786 784 780 780 780 781 780 778 778 779 776 775 770 773 773 767 754 719 717 718 722 726 729 734 733 735 736 740 745 749 753
740 745 749 752 756 756 757 759 763 765 768 772 774 776 777 775 776 776 776 776 774 775 779 787 786 785 782 780 781 780 780 778 776 775 775 774 774 773 760 716 713 712 714 717 722 723 727 729 733 737 740 744 749 752
732 737 742 746 750 753 755 758 761 764 766 770 773 775 776 775 774 773 774 771 770 776 779 782 779 780 782 781 780 781 780 779 777 776 771 769 765 755 717 711 709 710 711 713 717 722 726 729 732 735 739 744 748 750
721 729 736 740 743 749 750 754 759 762 766 769 774 775 774 772 773 775 775 775 774 771 773 775 770 778 775 779 781 781 781 779 784 769 769 765 739 717 704 704 702 702 705 710 720 727 727 729 730 732 734 738 742 745
712 720 728 733 738 742 749 751 755 759 765 769 770 772 771 771 773 772 774 776 771 775 768 767 767 777 776 777 775 777 781 780 788 769 772 756 734 703 691 690 694 696 699 703 706 711 716 719 724 729 733 736 739 742
703 711 718 725 732 738 745 749 751 756 760 762 767 770 771 772 775 777 775 774 773 765 762 768 769 767 772 771 772 777 778 784 782 770 773 758 708 690 690 687 687 691 696 701 704 707 711 716 720 724 729 733 736 739
693 701 709 716 727 733 738 745 750 755 758 763 766 770 771 773 780 776 774 771 765 757 760 763 771 769 773 774 772 777 782 777 767 778 757 731 691 692 692 690 691 690 694 700 704 706 709 713 718 723 727 730 734 738
684 692 703 711 719 729 735 741 747 754 755 759 764 767 765 759 759 750 749 748 750 751 757 759 764 767 767 773 770 781 766 766 776 777 745 702 694 689 693 692 692 696 696 700 704 707 710 713 717 723 727 729 733 737
676 685 696 709 716 724 729 737 744 751 752 756 758 750 746 744 746 747 750 749 750 749 752 760 763 762 769 771 766 771 775 778 755 738 715 706 700 696 695 696 696 696 699 702 705 708 711 715 718 723 728 731 733 735
669 683 692 703 711 722 726 734 743 748 750 750 747 742 743 750 745 747 750 749 748 750 751 755 760 766 761 756 769 767 770 759 728 720 711 708 703 700 698 697 697 699 701 704 707 709 711 715 718 722 727 731 733 734
659 668 682 697 709 720 725 731 737 744 745 736 733 734 737 738 736 737 740 740 741 748 753 756 758 749 751 760 759 745 743 719 710 709 708 704 701 700 700 698 698 700 702 705 708 711 713 716 719 722 726 729 731 733
652 663 675 691 706 717 724 727 734 735 728 727 729 728 729 729 731 732 732 733 740 743 743 748 745 751 747 746 740 722 715 710 708 706 703 702 699 698 700 701 701 700 703 707 710 712 714 717 720 722 724 727 729 731
643 656 672 686 693 705 716 723 725 723 721 720 722 724 726 725 725 724 726 729 731 732 736 742 739 742 732 724 720 712 712 711 708 705 704 701 700 698 698 701 702 703 704 707 711 713 715 717 719 721 723 725 727 729
642 657 672 680 689 697 706 712 716 715 711 713 717 720 721 721 720 721 724 726 728 734 733 728 728 718 713 707 704 705 705 704 706 707 704 701 700 699 698 699 701 703 705 709 711 712 715 717 719 720 722 724 726 727
652 663 673 680 687 694 695 701 705 706 705 710 711 712 715 717 719 718 720 718 722 720 719 710 700 696 697 696 695 695 695 695 697 699 698 701 699 699 698 698 700 703 706 708 711 711 711 715 715 718 720 722 723 725
646 660 671 681 686 690 691 693 697 701 708 704 709 710 707 712 710 708 711 711 704 701 698 692 690 690 691 690 688 686 684 685 685 685 689 694 696 697 696 694 696 700 702 705 708 708 711 713 714 717 720 721 721 722
643 656 667 678 685 688 685 687 693 697 701 703 705 705 703 701 701 700 699 694 690 682 678 679 677 677 676 674 674 674 675 677 679 678 677 683 687 686 689 691 691 691 699 702 704 706 710 712 714 717 719 720 720 721
643 652 661 670 672 678 682 684 680 686 689 693 695 694 695 698 693 693 688 686 666 668 669 666 668 669 672 672 670 665 666 668 669 671 672 673 679 683 686 687 686 687 692 697 702 705 707 709 712 715 717 718 719 719
643 655 658 660 659 673 677 676 675 679 690 690 687 696 683 689 692 686 682 655 659 657 653 655 656 656 657 651 653 654 656 659 661 661 663 663 668 680 683 686 685 686 689 694 699 701 705 707 710 713 715 716 718 717
636 639 642 639 655 659 665 670 670 671 680 689 684 686 687 682 680 673 662 641 639 638 641 643 644 645 647 642 642 642 642 645 650 653 654 657 659 664 672 676 681 685 686 688 692 697 702 705 709 711 713 715 717 717
626 623 624 631 639 643 652 651 656 666 675 673 672 683 681 677 676 652 636 629 628 628 631 631 633 635 633 633 634 635 635 638 642 644 647 651 657 661 664 663 669 669 676 682 688 693 697 700 704 709 711 714 715 717
611 616 624 632 638 639 645 650 655 657 658 656 660 674 665 658 643 629 624 625 627 628 628 629 630 629 628 628 629 630 633 635 637 640 646 650 655 659 662 664 666 667 673 680 685 692 696 697 700 705 709 713 714 714
613 612 619 633 639 637 635 635 636 633 630 635 640 643 639 627 619 620 621 622 624 625 626 627 626 626 624 624 626 628 628 631 635 639 643 649 657 659 661 664 664 669 673 679 685 691 695 699 702 705 707 710 712 712
605 604 617 625 624 621 618 616 618 616 619 621 621 621 619 616 613 614 615 618 620 621 620 620 620 623 624 624 626 628 628 629 632 631 631 636 643 650 656 660 664 669 673 678 684 692 696 698 702 705 707 708 710 711
595 604 611 610 615 618 619 619 619 619 620 623 624 622 616 618 611 609 610 610 612 614 615 615 616 616 617 619 621 623 625 625 625 628 631 633 638 647 651 657 663 668 672 676 681 688 692 695 699 703 706 708 709 709
597 596 598 604 615 619 617 618 619 620 625 626 625 625 624 623 620 607 601 603 607 607 605 607 608 608 610 611 613 615 615 617 624 628 631 634 637 643 649 657 663 667 671 676 681 686 690 693 697 701 704 706 705 705
599 596 599 604 613 615 615 614 616 619 623 623 620 619 618 615 609 597 593 593 593 594 597 599 601 603 605 607 609 613 614 617 622 627 631 634 637 642 649 657 663 667 672 676 682 686 690 693 696 699 702 702 702 704
Wind_Speed
16 16 13 15 16 15 12 12 9 8 4 12 13 13 11 5 5 2 4 4 3 2 2 3 4 3 2 3 2 2 2 2 2 2 1 0 2 1 2 2 2 2 2 3 1 1 6 5 3 2 3 4 5 5
16 17 13 14 15 13 11 12 8 6 3 7 15 9 7 1 6 7 2 5 5 3 2 3 2 2 3 4 3 2 0 1 1 1 1 1 2 1 2 2 1 3 2 1 2 4 1 6 3 2 2 4 4 6
16 17 15 11 14 12 9 11 10 6 7 13 19 13 4 5 8 5 0 2 0 2 1 2 2 1 3 3 2 1 2 4 2 1 1 1 2 2 2 4 3 5 4 2 3 2 5 5 5 3 2 4 6 6
17 18 16 11 11 10 7 8 8 6 13 12 13 10 8 7 9 4 1 3 1 2 1 1 0 1 3 4 2 3 5 5 3 1 2 2 2 1 3 2 2 3 4 5 5 5 2 5 7 8 6 5 6 6
19 19 18 14 9 9 5 4 2 6 11 11 11 11 8 5 5 6 7 6 3 1 1 1 1 2 1 1 2 4 6 4 2 1 2 3 1 0 3 2 5 7 7 6 5 8 7 1 10 8 9 8 8 7
21 21 20 16 11 8 7 5 4 8 9 11 9 9 7 4 2 3 1 6 6 2 1 1 1 2 2 2 1 2 1 2 2 1 3 1 1 1 2 4 7 8 9 8 4 2 3 2 3 8 9 9 8 8
24 24 22 18 14 10 10 8 9 11 13 12 11 9 6 4 2 2 3 3 1 1 2 3 2 1 1 1 1 2 2 2 1 2 2 2 2 3 3 5 6 9 9 8 6 7 2 3 4 8 8 8 12 8
27 26 24 20 16 13 12 11 10 13 15 14 12 8 5 5 0 0 2 2 1 4 1 2 2 3 3 2 2 0 2 1 2 2 1 2 0 2 5 12 8 7 7 7 9 5 3 6 8 7 9 10 7 6
29 29 27 22 18 15 13 11 12 14 14 15 11 5 2 3 2 1 4 5 6 3 2 2 3 3 1 1 2 1 0 2 0 3 3 3 4 7 10 8 9 9 9 8 8 8 5 8 9 9 8 8 7 7
32 32 29 24 19 18 15 15 13 15 17 14 10 3 2 2 1 2 1 2 0 1 1 3 1 2 3 3 1 0 0 3 2 4 2 4 6 12 16 11 8 9 10 10 8 7 7 7 10 10 10 8 7 7
34 35 32 26 22 21 19 19 19 20 19 5 4 3 2 4 2 1 2 2 2 2 4 3 4 3 2 3 3 3 2 1 2 3 2 3 4 6 11 20 11 9 11 12 6 8 8 7 10 9 8 8 10 10
38 38 34 28 25 25 23 23 26 21 11 10 8 5 3 1 1 1 3 1 2 4 3 4 3 1 2 1 1 2 3 2 5 2 1 4 5 6 2 3 8 9 11 11 7 10 10 9 10 8 7 7 12 12
41 40 35 30 28 28 28 25 27 18 17 9 2 2 2 1 1 6 6 4 3 3 3 3 2 3 1 1 1 1 3 5 1 1 4 6 5 2 3 1 3 8 10 10 7 10 13 11 15 13 8 13 12 10
44 42 36 31 31 28 29 27 32 22 4 3 4 5 5 5 5 4 3 2 0 4 5 3 2 3 1 3 3 2 3 1 2 2 7 3 4 4 4 3 6 7 8 9 9 9 9 10 10 13 13 13 12 9
46 42 35 31 31 29 30 30 32 22 5 3 4 6 7 3 1 2 1 2 1 4 5 3 2 3 2 2 3 2 1 4 6 5 3 3 5 1 3 3 5 7 7 7 7 9 9 13 12 12 10 9 8 7
47 32 30 32 33 30 29 31 19 5 2 2 5 3 2 1 2 2 2 2 3 4 2 2 3 3 5 4 3 8 5 7 4 3 3 4 5 3 3 4 5 5 6 6 8 12 14 13 12 12 11 8 6 6
44 12 33 37 35 32 35 14 5 4 5 5 3 4 2 1 3 3 4 4 8 4 3 3 6 10 2 3 4 5 6 4 3 4 2 3 4 4 3 3 5 6 6 8 10 13 12 15 15 12 6 7 6 4
13 29 43 43 39 37 12 5 4 4 7 3 3 5 4 3 2 2 3 6 4 3 3 5 2 3 5 6 4 4 4 3 3 4 3 4 3 1 3 4 4 8 9 11 14 14 14 14 8 6 9 7 3 2
40 46 50 50 36 12 4 5 4 4 7 3 2 1 2 2 2 1 4 7 3 1 4 2 4 3 4 4 4 3 2 2 3 2 3 3 4 4 6 10 11 10 13 12 13 11 12 10 9 10 8 6 5 3
43 47 52 48 35 5 4 3 7 4 5 4 2 3 3 3 3 3 4 5 4 3 3 4 5 4 4 4 4 3 3 3 0 3 4 3 3 6 7 9 7 14 14 14 14 14 14 10 8 9 8 7 5 3
39 39 48 34 8 3 2 4 3 3 3 3 3 5 3 2 2 4 3 6 5 3 3 5 10 10 6 4 8 7 5 5 5 5 3 2 4 8 8 13 17 14 6 8 5 9 12 9 13 11 9 7 5 2
31 40 21 13 3 2 1 7 3 3 3 1 3 3 3 3 5 5 2 6 4 5 7 9 11 7 9 9 7 16 18 15 15 10 8 7 4 4 5 11 13 5 8 10 12 9 11 13 13 11 8 6 3 2
36 21 7 5 4 6 3 12 4 6 5 5 4 4 4 4 4 4 4 4 4 8 12 12 16 22 15 21 19 16 21 16 7 7 10 11 10 14 13 13 15 12 5 9 15 17 16 13 11 10 7 4 2 1
26 5 6 8 7 5 4 3 2 4 4 5 5 5 4 4 4 4 4 4 10 3 7 14 11 12 3 2 6 11 16 20 13 11 15 13 6 6 13 14 18 18 17 19 18 18 18 15 11 9 6 5 3 2
7 6 6 7 5 5 5 5 6 4 4 4 6 4 4 3 4 5 4 8 5 9 10 9 10 11 13 14 11 11 21 20 9 10 16 20 14 11 8 11 15 18 19 23 17 17 15 15 12 9 8 6 5 3
7 8 13 12 5 7 7 7 9 8 4 4 6 1 2 3 4 6 5 7 10 9 9 10 11 11 11 13 13 10 13 25 20 9 14 23 25 17 11 9 7 10 22 22 23 18 16 15 12 10 9 7 5 4
7 7 4 2 4 4 3 3 3 4 6 7 5 6 4 5 7 5 3 4 8 4 4 8 9 8 11 8 18 20 19 25 19 13 12 22 19 19 20 16 12 16 28 26 23 22 21 18 15 12 9 7 6 6
5 5 7 6 3 3 5 4 5 7 5 4 7 6 9 9 7 4 3 2 1 3 5 7 9 12 17 17 14 18 18 20 19 17 17 15 14 14 15 14 14 16 27 25 21 19 17 16 15 13 11 8 7 5
3 4 6 5 3 3 5 6 7 5 4 6 8 6 6 4 3 3 4 6 3 1 1 1 3 3 6 10 14 16 22 25 12 10 13 7 4 6 15 20 23 23 26 23 17 15 15 14 13 12 9 6 4 2
5 6 4 4 7 8 6 6 4 4 4 4 2 2 3 2 4 8 7 6 3 3 6 8 10 13 5 5 4 6 16 17 13 9 12 11 11 23 28 26 26 27 26 24 22 19 15 15 12 10 8 7 5 3
5 3 4 3 4 3 2 1 3 3 2 1 1 2 5 3 3 7 13 12 12 11 8 5 8 15 11 7 7 7 7 19 16 9 10 21 26 33 31 30 29 28 26 25 24 23 19 16 12 10 8 7 6 2
2 5 5 5 3 2 2 3 3 3 3 1 2 1 2 2 3 3 9 18 11 7 14 13 7 6 20 20 19 16 7 20 20 14 19 26 29 32 32 31 29 27 26 24 22 21 17 16 14 11 9 7 4 1
2 2 3 3 2 3 3 3 3 2 2 3 3 4 4 4 7 3 9 22 17 13 13 15 16 14 17 18 17 16 16 23 24 19 19 21 27 33 33 31 28 27 25 24 22 20 18 16 14 11 8 4 2 0
Wind_Direction
281 282 296 307 319 323 328 336 352 354 39 165 155 131 121 40 17 270 315 332 340 50 94 343 5 332 323 287 176 133 86 250 297 335 3 50 308 41 320 193 293 233 188 205 229 193 266 125 59 165 185 91 127 106
269 271 281 300 311 316 321 331 337 318 283 177 165 153 159 354 343 349 314 51 36 48 91 95 106 75 33 356 327 10 167 347 356 64 275 319 246 180 306 286 8 293 203 249 207 219 194 191 83 110 70 141 150 122
256 261 269 286 302 308 312 324 328 273 206 171 170 158 101 31 9 352 193 41 333 138 82 216 142 180 10 327 309 323 53 356 23 111 327 315 265 100 247 243 231 222 156 220 26 295 177 219 143 153 197 142 134 135
245 252 258 268 287 295 301 321 352 182 184 173 177 165 131 61 41 35 97 14 312 299 168 151 68 194 270 331 263 259 311 301 284 315 264 236 235 134 262 236 212 197 109 211 247 256 26 243 204 183 175 117 115 109
239 244 249 255 266 274 275 296 353 161 179 181 176 158 157 142 78 44 72 56 39 354 205 126 19 215 354 353 245 251 266 284 256 253 233 237 121 82 236 359 241 181 186 185 215 199 178 223 193 169 160 173 159 143
233 236 242 247 247 235 233 235 227 189 190 196 200 191 190 157 67 59 7 25 41 39 29 304 142 153 358 353 155 188 271 290 287 246 242 161 109 176 262 245 241 208 201 195 208 108 118 111 179 158 157 167 162 160
228 230 233 237 241 218 211 218 213 200 201 203 216 212 205 220 182 207 185 173 32 45 91 332 315 155 191 262 249 248 214 252 247 272 256 215 199 185 249 239 227 219 201 196 133 114 99 185 177 150 144 147 141 140
225 224 227 230 233 213 203 207 198 203 201 196 192 204 244 282 134 290 245 235 129 96 40 130 265 326 186 218 216 67 267 230 234 258 342 222 84 226 254 243 235 217 182 176 167 171 148 157 137 143 133 131 151 171
223 220 220 222 222 209 201 195 194 197 197 200 194 184 196 230 235 207 204 177 168 148 174 172 178 208 175 348 22 341 359 264 275 240 226 153 210 224 234 217 216 194 185 184 164 149 166 158 160 154 151 162 169 187
218 217 216 216 212 203 191 185 183 186 198 179 147 175 230 186 165 142 239 204 181 178 102 202 160 186 156 152 228 306 266 258 262 236 99 229 251 249 255 228 227 196 174 154 143 169 177 185 175 174 181 175 177 182
215 213 212 210 206 194 186 182 180 165 146 170 176 199 203 148 163 217 249 211 152 258 186 215 171 150 250 142 184 195 207 233 274 251 182 264 270 243 235 234 211 189 174 181 168 176 186 169 170 168 177 178 182 183
213 210 206 203 200 189 184 181 182 161 171 176 150 130 138 169 38 158 211 346 231 231 165 141 191 140 165 183 182 200 184 66 245 146 251 268 252 274 228 237 207 169 166 168 163 165 167 168 170 163 163 170 176 185
211 206 201 197 193 186 182 182 183 171 144 131 101 77 122 177 173 198 192 235 214 180 170 151 139 138 91 263 154 147 179 220 69 260 237 237 254 247 221 214 138 144 150 153 156 150 147 137 157 156 152 174 175 175
206 201 197 194 186 183 182 182 181 166 143 127 154 213 205 194 228 198 203 166 176 106 132 138 103 144 164 141 167 177 238 79 266 248 238 266 303 281 178 182 143 166 151 145 149 142 137 137 135 151 165 164 164 175
202 193 187 187 183 181 178 180 171 170 150 157 165 220 217 219 186 117 162 114 295 141 133 103 74 134 173 210 185 66 293 259 222 233 241 292 318 259 170 183 171 157 148 148 151 146 144 143 141 142 156 162 170 179
187 167 175 182 178 177 168 166 162 165 70 177 216 196 195 347 216 167 172 163 186 149 89 62 141 145 221 189 157 206 175 226 253 232 273 318 314 276 209 183 176 159 148 145 148 146 145 145 147 150 150 162 174 191
160 149 176 175 171 169 166 141 129 169 209 215 197 204 178 231 214 169 164 184 161 144 183 152 181 206 106 159 225 198 208 234 251 264 259 274 285 270 228 185 161 153 137 138 138 144 133 137 137 137 143 164 166 189
144 156 163 165 162 152 153 151 140 205 229 201 187 189 192 213 176 178 180 146 143 200 125 213 139 183 207 189 230 236 236 266 261 271 282 297 287 231 187 180 155 146 133 135 144 140 138 139 141 154 152 160 160 168
154 153 161 164 158 136 137 182 178 223 211 181 192 102 159 203 208 171 158 180 181 160 125 145 224 220 228 218 231 244 251 233 285 308 295 305 280 184 156 147 141 130 131 137 145 148 155 159 164 157 155 161 159 168
151 155 164 165 165 116 131 152 171 225 186 186 150 165 188 184 176 180 184 181 160 156 190 206 213 220 213 232 199 197 190 191 134 321 278 256 238 161 160 159 150 146 131 136 138 143 141 136 150 154 158 162 164 162
144 162 166 162 162 113 129 145 173 211 143 186 174 155 180 112 186 192 210 182 185 201 223 216 240 242 240 237 210 201 208 181 190 198 243 253 206 191 157 156 158 156 155 159 162 171 166 177 169 166 161 161 158 178
143 152 148 168 88 138 243 177 144 127 125 123 148 190 172 189 210 205 164 195 223 217 220 237 243 241 239 240 228 219 235 210 214 205 214 178 168 183 198 178 159 171 174 185 180 168 163 167 161 160 160 159 168 200
138 137 102 126 160 174 225 149 145 171 163 187 153 183 218 208 213 127 219 208 222 225 232 236 241 239 240 244 232 230 229 205 214 210 186 193 211 192 181 185 181 159 163 175 185 173 164 158 157 167 169 166 162 173
133 108 145 179 182 180 139 175 150 144 162 163 175 210 218 205 142 209 242 224 231 213 221 233 235 248 264 334 233 235 226 209 217 204 190 167 170 193 199 194 181 183 189 180 174 166 166 166 164 168 174 171 176 195
112 183 172 192 169 128 167 155 161 174 195 182 165 231 188 157 183 218 227 249 212 234 236 231 229 229 237 246 244 239 229 196 201 204 203 184 148 129 143 175 177 184 181 164 163 164 167 173 175 178 184 183 194 211
180 187 185 190 160 157 168 150 187 190 143 154 210 164 135 159 208 242 232 229 231 235 235 226 226 232 237 236 245 237 215 203 199 209 192 188 181 179 182 171 173 201 191 190 172 164 167 176 181 186 190 193 208 224
202 194 158 110 144 124 132 125 137 135 164 188 162 162 143 207 234 244 254 225 240 233 226 233 222 223 239 252 241 241 213 192 194 210 197 181 190 195 191 176 190 191 186 184 184 184 176 175 181 185 185 197 214 231
213 159 152 166 140 168 139 135 147 174 185 175 141 171 181 202 225 219 207 151 191 298 308 294 275 260 248 252 214 164 152 163 152 141 140 147 166 175 188 195 183 166 176 179 178 181 182 178 174 175 182 194 207 235
168 151 116 151 137 180 192 170 195 209 159 163 173 198 229 223 205 185 186 185 220 239 229 218 266 214 148 163 180 180 172 157 152 158 168 166 157 169 164 157 150 156 159 158 163 171 168 165 164 166 173 186 200 212
174 162 117 144 164 201 209 191 192 174 173 182 187 334 307 271 226 224 220 217 180 202 222 237 201 182 181 168 163 163 186 192 226 202 184 180 176 162 163 162 158 159 158 156 152 145 144 146 146 148 158 162 157 154
134 94 96 143 203 222 169 82 16 25 55 158 352 217 255 303 296 230 219 221 216 206 192 188 196 198 180 179 180 179 202 203 193 174 171 164 161 162 165 168 167 163 162 159 157 160 158 159 162 162 164 165 159 160
138 169 154 165 214 186 109 160 169 187 196 163 260 152 339 15 265 247 212 191 188 212 220 208 199 206 209 215 208 199 196 187 178 165 161 162 163 167 168 167 165 164 161 160 162 163 163 159 161 166 168 171 156 117
81 82 79 103 114 148 176 142 179 211 223 228 238 191 205 192 230 256 207 209 207 208 207 213 213 210 204 197 186 186 180 179 171 167 171 169 166 165 164 164 163 161 159 158 159 160 159 159 160 165 169 159 146 299